Theta_e
349 348 348 349 349 352 354 355 354 355 359 360 357 355 354 354 351 349 350 353 356 354 353 353 351 351 349 348 345 341 339 338 338 335 337 339 338 336 335 331 331 330 333
348 350 350 349 350 351 353 357 357 357 355 358 357 356 355 352 353 355 353 353 353 353 352 350 350 351 350 348 346 342 340 338 338 336 339 344 342 338 336 331 329 329 330
346 352 352 350 351 352 355 357 359 359 359 357 357 356 355 356 354 354 353 357 355 354 353 354 353 350 345 343 344 341 340 338 341 337 340 346 348 341 339 334 331 329 329
347 349 353 353 352 352 354 358 360 360 362 356 359 357 356 356 353 354 352 354 353 355 353 352 352 352 343 340 340 339 337 340 340 341 337 336 335 343 343 338 333 330 329
346 347 352 352 352 353 356 358 362 362 363 361 359 358 357 353 348 346 350 354 354 354 355 353 352 349 339 339 340 340 334 342 336 337 339 340 338 332 337 340 334 333 330
348 348 350 351 353 353 357 358 364 365 364 364 358 359 355 354 353 353 352 355 355 354 351 350 349 347 338 343 341 339 340 338 341 338 337 336 338 336 339 338 335 335 332
350 350 351 354 354 354 356 359 363 366 366 365 363 357 358 352 355 354 355 355 351 355 351 347 351 348 341 340 340 341 340 339 338 337 337 337 332 334 332 333 334 335 331
350 350 352 353 355 354 356 359 363 366 368 365 365 362 358 357 356 356 352 354 348 347 351 347 350 349 344 340 340 339 338 338 338 336 336 336 336 333 333 334 333 337 335
352 351 353 353 355 355 356 358 364 367 369 368 367 366 362 360 359 357 355 354 349 349 351 350 351 349 344 341 340 338 337 339 338 337 336 333 334 335 334 332 333 332 338
352 352 351 355 354 355 355 358 360 367 369 368 368 367 366 362 359 354 354 352 354 348 346 350 348 350 344 342 341 338 339 337 335 335 335 336 336 334 333 331 331 332 333
350 350 352 351 354 356 356 358 360 365 368 369 367 367 366 365 360 363 360 356 352 350 347 344 349 348 347 342 342 338 337 336 336 334 333 333 335 334 334 335 333 331 329
345 349 352 351 353 354 355 357 360 363 366 367 367 367 367 366 365 361 363 357 359 353 347 348 349 349 345 343 342 338 338 340 338 339 337 334 335 335 334 334 335 333 333
350 349 351 352 352 352 353 356 358 361 365 366 366 366 366 366 366 365 361 361 358 355 354 349 351 347 343 343 340 339 337 338 335 335 335 334 335 336 336 337 335 334 335
356 351 351 354 352 352 353 354 357 358 362 364 364 365 364 365 364 364 363 361 360 358 357 353 351 348 342 341 341 341 340 338 336 337 335 335 337 336 336 334 334 335 335
353 354 356 357 355 354 353 353 353 354 356 361 364 365 365 364 364 363 363 362 362 361 359 354 350 347 341 342 342 341 340 339 339 339 336 334 336 337 336 336 335 335 333
344 355 356 362 364 357 354 352 352 352 353 356 361 363 364 366 364 363 364 363 364 362 359 351 347 344 340 339 338 341 341 339 339 339 337 335 338 336 333 333 332 330 331
343 348 358 358 360 359 355 353 352 353 353 357 359 360 364 367 365 364 363 364 363 359 355 349 344 342 339 339 338 341 340 337 338 339 336 335 335 336 335 334 333 329 328
342 343 339 357 358 358 356 355 354 354 354 362 361 362 365 368 366 364 364 364 361 357 353 348 341 338 339 336 336 334 338 335 337 337 334 334 334 337 337 335 332 328 329
346 343 338 343 356 357 356 360 357 356 363 361 366 365 370 369 367 365 363 361 358 355 352 348 340 339 339 338 337 334 334 333 334 332 331 334 336 338 332 332 329 329 329
337 348 345 346 360 360 358 360 363 361 360 365 367 369 371 368 364 361 357 355 353 352 352 349 342 340 340 340 338 335 333 333 334 332 333 334 334 335 332 329 330 333 331
342 344 352 360 363 361 361 362 363 365 363 367 368 371 369 365 359 355 352 350 352 354 351 345 342 340 337 342 341 338 334 336 336 334 333 334 335 332 329 329 328 328 328
345 352 369 369 365 363 365 367 368 366 367 367 368 369 363 358 354 352 351 352 350 348 345 342 341 343 342 342 341 339 337 336 336 334 335 334 333 332 330 326 323 322 320
355 353 363 366 363 364 364 366 365 363 364 365 366 363 357 354 352 353 350 348 348 347 346 345 346 343 342 342 340 339 336 334 334 333 335 332 329 329 326 323 320 320 319
359 357 359 363 365 362 362 364 363 363 363 364 359 355 354 354 354 353 350 349 348 347 346 346 343 342 341 341 339 338 336 335 333 330 330 328 326 325 323 322 320 319 318
358 359 362 364 364 366 363 363 364 364 361 357 354 353 352 352 353 348 347 345 343 343 345 342 341 343 342 341 338 337 334 332 330 330 328 325 324 324 323 321 321 321 320
353 356 358 359 358 360 360 361 361 358 356 354 352 353 351 350 342 338 335 340 340 338 337 336 340 338 335 337 337 333 331 331 331 328 330 327 326 326 324 323 322 320 319
Wind_Speed
20 26 28 28 27 27 27 29 27 24 19 21 19 15 12 13 16 19 16 15 11 10 10 11 7 7 4 4 0 2 5 11 2 5 11 10 7 6 5 7 8 7 7
20 21 28 28 30 28 31 29 30 26 26 19 19 18 19 21 22 20 20 16 12 11 12 9 8 11 4 5 5 1 3 9 4 2 9 2 4 6 5 8 7 7 8
21 21 22 29 29 31 32 32 30 29 27 24 22 21 16 18 15 18 15 16 12 11 13 8 6 3 3 4 6 3 1 6 2 1 2 3 1 3 4 8 7 7 6
21 20 22 27 29 30 32 31 31 30 28 31 24 22 19 13 14 14 20 19 16 14 13 10 10 10 6 3 4 3 3 4 7 6 5 1 1 2 1 5 9 8 10
22 21 23 29 30 29 33 34 33 33 31 30 27 25 18 18 18 20 13 19 15 15 14 12 12 9 4 9 9 5 7 4 4 8 2 5 5 2 1 3 5 8 7
22 22 28 32 32 32 33 35 34 34 33 33 35 24 26 24 22 19 21 19 18 18 15 14 13 11 7 7 8 7 6 5 3 3 3 5 2 2 1 1 4 5 3
21 22 22 23 32 33 34 35 36 35 34 30 33 33 24 27 20 12 19 18 20 20 23 18 18 16 13 13 11 11 10 7 4 3 5 4 3 3 4 4 3 2 8
21 22 24 23 31 35 33 34 37 36 35 33 31 31 29 26 22 20 20 20 19 19 26 25 22 18 18 16 15 13 12 11 10 7 5 5 6 5 8 6 3 1 3
23 23 23 27 31 34 35 35 35 37 36 34 32 31 31 29 25 25 26 21 22 18 23 25 22 22 18 18 17 16 14 9 11 10 11 9 11 11 9 6 6 7 2
21 20 20 23 31 34 36 34 34 36 36 35 33 32 33 34 32 30 28 28 24 25 25 24 24 22 22 21 20 16 16 15 13 13 14 16 13 10 7 9 12 14 14
20 19 20 26 31 32 34 36 36 35 35 35 35 33 34 35 37 28 29 31 29 31 25 28 25 25 24 24 24 20 20 21 19 15 15 9 10 10 9 11 5 3 6
14 15 17 20 29 32 33 36 36 35 37 36 36 37 38 35 34 35 30 34 30 30 35 28 28 27 27 27 27 26 20 20 22 19 15 13 12 14 15 14 11 12 13
13 18 17 19 21 32 33 35 38 37 36 37 38 38 35 36 36 37 36 32 33 33 32 32 30 30 30 31 31 29 25 21 21 19 18 17 16 14 13 11 14 13 12
11 14 13 18 21 32 35 36 38 38 38 39 40 37 38 39 38 37 37 37 35 34 30 30 31 32 33 34 30 28 25 23 20 17 15 14 15 15 15 16 16 16 15
9 8 8 11 19 24 35 38 37 40 40 40 39 39 39 39 37 36 38 35 33 32 28 26 27 28 29 28 27 26 25 23 20 17 16 17 16 16 18 16 14 17 15
9 13 13 9 12 20 32 37 39 41 39 39 40 39 39 37 36 36 33 30 28 27 23 25 27 28 30 28 28 27 25 25 23 20 16 17 12 15 17 14 15 18 19
12 7 12 13 11 22 35 37 40 39 39 36 39 38 37 37 37 34 31 30 29 23 24 26 32 30 24 23 25 29 27 25 22 19 17 19 19 16 19 16 15 16 19
17 12 12 12 17 21 31 34 34 35 38 31 35 35 34 35 33 31 29 26 24 24 21 23 27 25 25 26 19 21 27 24 21 16 17 19 20 18 16 18 19 22 23
12 13 16 15 23 23 27 31 35 36 29 34 34 33 31 30 29 27 24 22 20 18 21 24 24 23 22 25 21 21 25 25 20 21 19 19 20 22 21 19 23 25 19
16 7 9 19 24 25 27 28 28 33 33 31 30 29 31 30 26 24 20 18 17 19 20 23 23 22 20 20 20 22 22 18 20 20 21 22 23 24 22 20 16 13 14
11 5 7 11 23 27 28 25 27 27 31 25 26 24 25 24 23 22 18 16 15 13 16 17 16 20 24 17 18 21 24 18 18 23 23 20 20 18 18 16 12 12 14
3 3 5 10 20 24 25 20 17 19 22 24 23 23 23 22 19 15 15 16 13 13 13 15 16 15 16 15 17 20 23 20 17 16 10 9 12 14 12 9 11 13 14
4 7 11 10 12 17 23 19 21 24 24 25 23 22 23 21 20 19 20 16 14 14 14 14 14 16 14 14 16 18 19 19 21 16 12 10 8 8 7 9 10 12 13
9 15 15 10 13 22 22 23 24 25 25 24 23 23 22 19 20 19 19 16 16 13 14 14 14 10 12 14 14 20 20 17 13 14 12 9 6 7 7 11 11 9 7
15 17 13 13 16 21 23 22 22 23 24 23 21 21 20 20 19 17 14 12 10 12 9 9 12 10 14 17 15 13 10 9 10 9 10 10 9 12 14 13 13 13 13
16 15 15 15 17 19 17 19 23 23 22 21 20 21 21 21 17 17 13 9 8 8 7 6 9 8 5 13 19 12 12 12 13 14 11 11 14 15 8 18 18 18 18
Wind_Direction
190 189 192 189 191 184 185 187 196 204 187 184 187 212 224 209 218 233 224 206 219 234 234 237 251 246 254 212 232 306 307 282 223 311 278 213 173 154 142 108 74 35 51
187 189 185 196 190 191 188 190 194 203 200 197 195 201 209 217 225 229 200 212 220 210 221 226 240 221 221 165 163 118 309 313 156 300 330 144 181 157 174 119 109 99 65
197 182 187 193 195 189 189 191 193 196 196 198 200 214 220 230 222 234 184 188 203 208 224 209 220 151 117 130 121 150 240 313 200 105 319 14 96 164 202 150 136 121 109
193 189 185 188 198 194 190 191 190 192 194 200 196 198 206 219 217 208 210 203 206 204 207 220 202 184 186 139 141 160 197 262 300 179 152 127 21 359 158 168 154 165 144
194 195 185 188 195 196 189 190 190 191 194 197 202 202 196 211 218 225 223 178 185 199 198 192 185 185 190 195 157 158 182 203 297 338 176 157 207 161 303 121 229 200 167
192 192 185 186 191 197 190 189 189 192 194 196 203 205 197 210 214 209 163 167 173 188 195 184 194 179 179 178 177 184 197 208 198 266 360 287 9 171 227 281 9 17 350
188 187 185 185 187 193 191 187 188 189 194 196 197 203 205 215 224 225 178 184 189 188 189 190 192 190 197 190 181 187 193 201 205 205 283 302 277 338 329 36 67 23 322
190 186 187 185 188 189 193 188 187 189 191 193 194 200 202 210 216 218 204 187 197 203 194 189 202 192 197 191 194 192 185 196 201 203 227 288 257 239 243 239 163 307 290
185 187 186 188 184 189 190 191 185 187 190 191 191 194 198 200 209 212 216 200 204 203 190 195 197 197 193 190 198 195 197 183 199 208 220 230 243 264 258 198 189 204 227
178 185 185 184 187 187 190 191 191 187 189 191 192 194 196 201 208 212 215 207 205 202 198 194 197 196 200 198 197 201 196 200 210 226 235 225 237 268 291 269 247 245 230
178 185 181 181 183 184 189 193 192 187 189 190 192 195 199 203 207 211 210 211 213 205 205 202 195 201 200 198 200 204 205 205 209 218 240 247 238 250 253 280 280 251 259
189 173 179 177 177 186 189 191 193 193 190 190 192 197 202 202 205 212 211 207 208 206 207 199 197 200 202 200 201 207 210 195 207 214 219 239 237 238 244 262 275 278 271
172 178 183 176 184 186 188 190 193 194 190 191 195 199 201 201 206 209 211 210 207 205 206 202 198 199 198 200 204 207 205 204 209 216 219 230 234 241 247 257 263 271 287
158 165 192 184 190 188 186 188 192 194 192 193 198 200 201 205 206 208 211 211 209 207 206 202 200 198 198 204 201 205 209 208 210 214 221 222 231 234 246 257 269 279 284
155 176 195 192 189 184 186 186 190 192 194 194 197 201 204 207 208 210 214 210 210 209 208 203 204 201 203 203 200 207 211 211 212 212 214 228 231 237 244 246 252 257 261
228 192 192 198 181 180 185 190 189 189 194 196 197 201 204 205 207 210 213 209 209 207 203 200 200 199 204 207 210 209 209 211 213 214 218 229 236 244 257 260 242 253 264
225 216 193 198 205 184 185 188 192 187 192 195 195 199 200 200 202 206 206 206 204 198 201 202 206 207 209 211 217 208 211 216 218 220 214 235 245 252 246 255 259 268 269
208 225 251 190 194 203 182 188 187 189 190 188 192 198 197 194 195 200 201 198 195 201 207 211 206 206 212 212 227 221 216 217 222 224 228 237 247 243 240 259 268 276 285
246 207 221 230 183 193 188 180 184 189 183 191 189 194 191 182 187 188 187 193 197 207 217 216 201 203 208 213 216 224 223 226 230 235 236 238 249 250 261 262 273 286 281
245 288 260 212 170 180 182 180 182 187 193 188 187 180 170 173 173 178 182 195 212 223 220 209 194 204 204 218 221 220 222 226 237 241 241 245 245 255 264 274 273 269 278
224 201 240 167 166 172 174 178 182 189 193 178 174 165 160 162 162 169 179 193 207 215 201 192 197 222 230 222 226 223 225 228 242 250 246 237 246 259 265 270 263 263 280
318 179 129 140 156 167 157 159 163 169 167 157 160 148 149 149 155 170 188 181 177 167 176 190 205 217 223 233 230 226 225 231 239 265 282 220 245 266 255 247 262 279 293
82 136 109 117 127 123 139 137 138 148 145 146 146 142 144 154 165 151 163 166 175 181 184 193 202 217 219 207 212 221 226 238 242 249 259 277 294 270 241 268 286 291 296
86 93 102 101 103 113 122 125 135 140 141 135 133 135 142 152 155 157 165 172 177 186 192 190 203 215 188 191 212 219 229 238 238 235 253 267 237 254 234 256 269 262 268
75 83 90 92 107 109 111 119 126 131 123 123 127 136 146 154 155 146 163 169 177 199 199 200 217 198 191 196 192 188 206 219 207 207 203 211 236 240 240 233 229 236 248
72 83 90 94 100 104 112 127 130 131 130 134 148 156 148 154 137 134 114 143 163 158 157 143 167 183 161 174 180 189 183 191 188 189 216 239 261 248 234 215 227 239 248